Regional Weather Roundup
Issued by NWS

Home | Current Version | Previous Version | Graphics & Text | Print | Product List | Glossary On
Versions: 1 2 3 4 5 6 7 8 9 10 11 12 13 14 15 16 17 18 19 20 21 22 23 24 25 26 27 28 29 30 31 32 33 34 35 36 37 38 39 40 41 42 43 44 45 46 47 48 49 50
924
ASUS43 KMKX 070459
RWRWI

WISCONSIN REGIONAL WEATHER ROUNDUP
NATIONAL WEATHER SERVICE MILWAUKEE/SULLIVAN WI
1100 PM CST SAT FEB 06 2016

NOTE: "FAIR" INDICATES FEW OR NO CLOUDS BELOW 12,000 FEET WITH NO
SIGNIFICANT WEATHER AND/OR OBSTRUCTIONS TO VISIBILITY.

WIZ001-002-006>008-014>016-023>028-070600-
NORTHWEST WISCONSIN

CITY           SKY/WX    TMP DP  RH WIND       PRES   REMARKS
SUPERIOR ARPT  LGT SNOW  34  30  85 SW14      29.67F WCI  24
ASHLAND        FLURRIES  32  28  85 S10       29.70F WCI  24
HAYWARD        LGT SNOW  30  26  85 S15       29.72F FOG     WCI  19
SIREN          CLOUDY    32  29  90 S13       29.72F WCI  22
CUMBERLAND     LGT SNOW  30  28  93 S12       29.77F WCI  21
RICE LAKE      LGT SNOW  31  28  88 S9G16     29.81S WCI  23
CHETEK         LGT SNOW  30  27  90 S9        29.80F WCI  21
LADYSMITH      LGT SNOW  31  25  80 S14       29.80F WCI  20
EAU CLAIRE     NOT AVBL
MENOMONIE      DRIZZLE   32  26  79 S12       29.83F WCI  23
NEW RICHMOND   CLOUDY    32  28  84 S9        29.78F WCI  24
OSCEOLA        CLOUDY    32  30  91 S10       29.78F WCI  24
$$

WIZ003>005-009-010-017-018-070600-
NORTH CENTRAL WISCONSIN

CITY           SKY/WX    TMP DP  RH WIND       PRES   REMARKS
MANITOWISH WTR LGT SNOW  30  25  83 S13       29.75F WCI  20
ARBOR VITAE    LGT SNOW  32  28  84 S14G24    29.78S WCI  22
WOODRUFF       LGT SNOW  32  28  84 S14G24    29.78S WCI  22
RHINELANDER    LGT SNOW  29  24  82 S12       29.80S WCI  19
EAGLE RIVER    LGT SNOW  29  24  81 S9        29.77F WCI  20
LAND O LAKES   CLOUDY    30  26  82 S9        29.76F WCI  22
PHILLIPS       CLOUDY    30  23  75 S14G20    29.77F WCI  19
TOMAHAWK       CLOUDY    28  24  84 S3        29.82F
MEDFORD        CLOUDY    28  24  84 S12G20    29.83F WCI  18
MERRILL        CLOUDY    30  24  77 SW8       29.86F WCI  22
$$

WIZ029-030-035-036-043>047-070600-
CENTRAL WISCONSIN

CITY           SKY/WX    TMP DP  RH WIND       PRES   REMARKS
WAUSAU         CLOUDY    31  24  75 S14       29.85F WCI  21
MOSINEE        CLOUDY    30  27  86 S14       29.88F WCI  20
MARSHFIELD     CLOUDY    30  22  72 S10       29.85F WCI  21
STEVENS POINT  CLOUDY    28  24  86 S12       29.90F WCI  17
WAUPACA        CLOUDY    32  26  78 S8        29.95F WCI  25
WAUTOMA        NOT AVBL
WISC RAPIDS    CLOUDY    30  23  75 SW9       29.92F WCI  22
CAMP DOUGLAS   NOT AVBL
$$

WIZ011>013-019>022-031-037>040-048>050-070600-
NORTHEAST WISCONSIN

CITY           SKY/WX    TMP DP  RH WIND       PRES   REMARKS
ANTIGO         LGT SNOW  28  24  86 S12       29.87F WCI  18
SHAWANO        CLOUDY    32  26  79 S5        29.93F WCI  27
OCONTO         CLOUDY    30  26  84 SW7       29.94F WCI  23
STURGEON BAY   CLOUDY    28  23  80 S10       29.97F WCI  19
GREEN BAY      CLOUDY    29  24  82 S12       29.95F WCI  19
MANITOWOC      NOT AVBL
APPLETON       CLOUDY    28  23  80 S12       29.94F WCI  18
CLINTONVILLE   CLOUDY    30  27  86 S8        29.93F WCI  23
OSHKOSH        CLOUDY    29  24  82 S13       29.95F WCI  19
$$

WIZ032>034-041-042-053>061-070600-
SOUTHWEST WISCONSIN

CITY           SKY/WX    TMP DP  RH WIND       PRES   REMARKS
LA CROSSE      CLOUDY    31  26  82 SE10      29.90F WCI  22
SPARTA         CLOUDY    32  27  81 S5        29.92F WCI  27
VIROQUA        CLOUDY    31  28  89 SW15      29.91F WCI  20
BOSCOBEL       PTCLDY    33  29  85 S8        29.96F WCI  26
PRAIRIE DU CHI CLOUDY    33  28  79 SE3       29.96F
PLATTEVILLE    MOCLDY    31  30  95 S12       29.98F WCI  22
$$

WIZ056-057-062-063-064-067-068-070600-
SOUTH CENTRAL WISCONSIN

CITY           SKY/WX    TMP DP  RH WIND       PRES   REMARKS
REEDSBURG      CLOUDY    31  28  90 S8        29.94F WCI  23
BARABOO/DELLS  CLOUDY    31  27  84 S15       29.94F WCI  21
LONE ROCK      NOT AVBL
MINERAL POINT  CLOUDY    32  30  93 S10       29.96F WCI  24
MADISON        CLOUDY    31  27  85 S3        29.99F
MIDDLETON      CLOUDY    32  28  86 SW6       29.99F WCI  26
WATERTOWN      CLOUDY    29  29 100 S5        29.99F WCI  24
MONROE         CLOUDY    32  30  93 S10       29.99F WCI  24
JANESVILLE     CLOUDY    32  32 100 S3        30.01F
$$

WIZ051-052-058>065-066-070>072-070600-
SOUTHEAST WISCONSIN

CITY           SKY/WX    TMP DP  RH WIND       PRES   REMARKS
MILWAUKEE      CLOUDY    33  27  78 SW9       30.02F WCI  25
WAUKESHA       CLOUDY    30  28  93 SW5       30.02F WCI  25
MILWAUKEE/TIMM CLOUDY    32  27  80 SW6       30.02F WCI  26
RACINE         PTCLDY    33  27  78 SW8       30.04F WCI  26
BURLINGTON     CLOUDY    29  27  90 CALM      30.02F
KENOSHA        PTCLDY    32  27  81 SW7       30.03F WCI  26
FOND DU LAC    CLOUDY    30  25  81 SW13      29.97F WCI  20
SHEBOYGAN      CLOUDY    30  25  81 SW9       29.99S WCI  22
WEST BEND      CLOUDY    30  27  86 SW3       30.00F
JUNEAU         CLOUDY    28  26  90 S9        30.00F WCI  20
$$

LSZ147-162-070600-
LAKE SUPERIOR

STATION/POSITION TIME  TEMP    WIND        PRES    WAVE
                       AIR SEA DIR/SP/G            HT/PER
                 (UTC) (F)     (DEG/KT/KT) (MB)    (FT/S)
DEVILS ISLAND    0400   33     190/  9/ 14 1007.2F
PORT WING        0400          180/  9/ 21   N/A
SAXON HARBOR     0440   34                 1006.4F
$$

LMZ867-665-643>646-070600-
LAKE MICHIGAN

STATION/POSITION TIME  TEMP    WIND        PRES    WAVE
                       AIR SEA DIR/SP/G            HT/PER
                 (UTC) (F)     (DEG/KT/KT) (MB)    (FT/S)
CHAMBERS ISLAND  0400   29     170/  8/ 14 1014.6S
ALGOMA LAKESHORE 0326          220/ 16/ 20   N/A
KEWAUNEE LAKESHO 0400   30     210/  8/ 11 1014.3F
SHEBOYGAN LAKESH 0400   31     200/ 12/ 13 1016.9F
PORT WASHINGTON  0440   31     250/  3/  6 1017.3F
MILWAUKEE LAKESH 0410   34     230/  8/ 10   N/A
KENOSHA   LAKESH 0400   33     200/  6/  8 1017.6F
$$

TC  - TEMPERATURE IN CELSIUS
VSB - VISIBILITY IN STATUTE MILES
WCI - WIND CHILL INDEX
HX  - HEAT INDEX





USA.gov is the U.S. government's official web portal to all federal, state and local government web resources and services.